Terminal Aerodrome Forecast
Issued by NWS Upton, NY

Current Version | Previous Version | Text Only | Print | Product List | Glossary On
Versions: 1 2 3 4 5 6 7 8 9 10 11 12 13 14 15 16 17 18 19 20 21 22 23 24 25
000
FTUS41 KOKX 191900 AAA
TAFBDR
TAF AMD
KBDR 191917Z 1919/2018 12008KT P6SM SCT045 SCT060
     FM200300 14007KT P6SM SCT030
     FM200800 15006KT P6SM OVC030
     FM201500 16009KT P6SM BKN040=

USA.gov is the U.S. government's official web portal to all federal, state and local government web resources and services.